Regional Weather Roundup
Issued by NWS

Home | Current Version | Previous Version | Graphics & Text | Print | Product List | Glossary On
Versions: 1 2 3 4 5 6 7 8 9 10 11 12 13 14 15 16 17 18 19 20 21 22 23 24 25 26 27 28 29 30 31 32 33 34 35 36 37 38 39 40 41 42 43 44 45 46 47 48 49 50
000
ASUS43 KDTX 290401
RWRMI
MICHIGAN HOURLY REGIONAL WEATHER ROUNDUP
NATIONAL WEATHER SERVICE DETROIT/PONTIAC MI
1100 PM EST FRI NOV 28 2014

NOTE: "FAIR" INDICATES FEW OR NO CLOUDS BELOW 12,000 FEET WITH NO
SIGNIFICANT WEATHER AND/OR OBSTRUCTION TO VISIBILITY.

MIZ047>049-052>055-059>063-066>070-074>076-081>083-290500-
SOUTHEAST LOWER MICHIGAN

CITY           SKY/WX    TMP DP  RH WIND       PRES   REMARKS
ADRIAN         CLOUDY    27  22  81 SE5       30.07F WCI  22
ALMA           CLOUDY    25  23  91 SE6       30.04F FOG     WCI  18
ANN ARBOR      CLOUDY    28  21  75 SE5       30.07F WCI  23
BAD AXE        LGT SNOW  24  22  93 S7        30.10S WCI  16
CARO           CLOUDY    25  21  86 SE6       30.08F WCI  18
DETROIT CITY   CLOUDY    30  23  75 S7        30.11F WCI  23
DETROIT        CLOUDY    30  23  75 SE6       30.10F WCI  24
FLINT          CLOUDY    28  22  78 SE9       30.06F WCI  19
GROSSE ILE     CLOUDY    32  25  74 S13       30.09S WCI  22
HILLSDALE      CLOUDY    28  22  81 S7        30.02S WCI  20
HOWELL         CLOUDY    26  22  84 SE9       30.05F WCI  17

CITY           SKY/WX    TMP DP  RH WIND       PRES   REMARKS
JACKSON        CLOUDY    28  21  75 S9        30.03F WCI  19
LAMBERTVILLE   CLOUDY    32  25  74 CALM      30.08F
LANSING        CLOUDY    28  20  71 SE12      30.03F WCI  18
LAPEER         CLOUDY    26  23  89 SE3       30.09F
MASON          CLOUDY    28  23  81 SE8       30.03F WCI  20
MONROE         CLOUDY    28  25  86 CALM      30.08S
MT. CLEMENS    CLOUDY    29  27  91 S10       30.09F WCI  20
PONTIAC        CLOUDY    26  21  81 S7        30.07S WCI  18
PORT HOPE        N/A     24  19  81 S5        30.09F WCI  18
PORT HURON     LGT SNOW  27  25  93 SE3       30.13S
TRI CITIES     CLOUDY    26  22  84 SE8       30.07F WCI  18
TROY           CLOUDY    30  25  80 SE3       30.11F
SAGINAW HB     CLOUDY    27  27 100 SE8       30.06F WCI  18
$$
MIZ043>046-050>051-056>058-064>065-071>073-077>080-290500-
SOUTHWEST LOWER MICHIGAN

CITY           SKY/WX    TMP DP  RH WIND       PRES   REMARKS
BATTLE CREEK   FLURRIES  31  20  63 S10       30.01S WCI  22
BENTON HARBOR  CLOUDY    30  22  72 S13       29.96F WCI  20
BIG RAPIDS     LGT SNOW  24  23  94 SE8       29.99F WCI  16
COLDWATER      CLOUDY    31  22  66 S7        30.01S WCI  25
FREMONT        CLOUDY    26  21  80 SE5       29.98F WCI  21
HOLLAND        CLOUDY    30  22  72 SE14      29.96F WCI  19
GRAND RAPIDS   FLURRIES  28  21  75 SE8       30.00F WCI  20
IONIA          CLOUDY    28  23  81 S9        30.00F WCI  20
KALAMAZOO      FLURRIES  30  20  66 S10       30.00F WCI  21
LUDINGTON      CLOUDY    26  22  85 SE13G18   29.95F WCI  15
MARSHALL       CLOUDY    28  21  75 SE7       30.01F WCI  20
MOUNT PLEASANT CLOUDY    25  23  91 SE6       30.03F WCI  18
MUSKEGON       CLOUDY    28  20  71 SE9       29.98F WCI  19
SOUTH HAVEN    CLOUDY    32  24  72 S7        29.98F WCI  25
$$
MIZ016>042-290500-
NORTHERN LOWER MICHIGAN

CITY           SKY/WX    TMP DP  RH WIND       PRES   REMARKS
ALPENA         CLOUDY    22  20  92 SE6       30.06F WCI  14
BEAVER ISLAND  CLOUDY    28  25  89 SE8       29.95F WCI  20
BELLAIRE       CLOUDY    26  20  80 S3        30.01F
CADILLAC       CLOUDY    22  19  87 SE9       29.96F WCI  12
CHARLEVOIX     CLOUDY    24  20  86 SE9       30.00F WCI  14
FRANKFORT      CLOUDY    26  22  87 SE15      29.95F WCI  13
GAYLORD        CLOUDY    21  17  84 S10       29.97F WCI  10
GRAYLING       CLOUDY    23  20  89 SE6       30.00F WCI  16
HARBOR SPRINGS CLOUDY    23  18  82 SE5       30.00F WCI  17
HOUGHTON LAKE  FLURRIES  22  19  89 SE9       30.00F WCI  12
MANISTEE       CLOUDY    25  19  80 SE9       29.97F WCI  15
OSCODA         CLOUDY    26  22  86 S8        30.07F WCI  17
PELLSTON       CLOUDY    23  18  81 SE8       30.00F WCI  14
ROGERS CITY    CLOUDY    23  21  92 S8        30.05F WCI  14
TRAVERSE CITY  CLOUDY    26  19  74 VRB6      29.98F WCI  19
$$
MIZ007>008-015-290500-
EASTERN UPPER MICHIGAN

CITY           SKY/WX    TMP DP  RH WIND       PRES   REMARKS
KINROSS        CLOUDY    21  19  93 SE7       29.99F WCI  13
MACKINAC ISLAN CLOUDY    24  19  82 S9G18     29.99F WCI  15
NEWBERRY       CLOUDY    22  21  96 SE6       29.94F WCI  14
S. S. MARIE    FLURRIES  20  17  88 E5        30.00S WCI  13
MUNISING         N/A     23  18  81 S8        29.90F WCI  14
$$
MIZ004>006-011>014-085-290500-
CENTRAL UPPER MICHIGAN

CITY           SKY/WX    TMP DP  RH WIND       PRES   REMARKS
MANISTIQUE     CLOUDY    30  28  91 S16       29.92F WCI  19
ESCANABA       CLOUDY    30  25  80 S14G21    29.88F WCI  20
MENOMINEE      MOCLDY    21  18  86 CALM      29.91F
SAWYER-GWINN   CLOUDY    21  19  93 SE6       29.83F WCI  13
$$
MIZ001>003-009>011-084-290500-
WESTERN UPPER MICHIGAN

CITY           SKY/WX    TMP DP  RH WIND       PRES   REMARKS
IRON MOUNTAIN  MOCLDY    14  11  87 CALM      29.83F
HOUGHTON       CLOUDY    19  14  81 SE8       29.83F WCI   9
COPPER HARBOR    N/A     26  19  74 VRB3      29.86F
IRONWOOD       CLOUDY    18  14  86 S3        29.77F
$$

ABBREVIATIONS USED IN REMARKS
   TC - TEMPERATURE IN CELSIUS
  WCI - WIND CHILL INDEX
   HX - HEAT INDEX
  VSB - VISIBILITY



USA.gov is the U.S. government's official web portal to all federal, state and local government web resources and services.